Location: *
(51.1248°S, 108.4023°W)
Time: 09:34:13
(UTC+00:00)

Okean-O - Visible Passes

Search period start: 28 October 2021 00:00
Search period end: 07 November 2021 00:00
Orbit: 638 x 641 km, 98.2° (Epoch: 27 October)

Date Brightness Start Highest point End Pass type
(mag) Time Alt. Az. Time Alt. Az. Time Alt. Az.
28 Oct 3.3 02:51:17 10° SSE 02:55:25 34° E 02:59:31 10° NNE visible
28 Oct 4.4 04:27:48 10° S 04:31:52 33° WSW 04:35:55 10° NW visible
29 Oct 2.8 03:14:21 10° SSE 03:18:48 56° E 03:23:12 10° N visible
29 Oct 5.1 04:51:27 10° S 04:54:57 22° WSW 04:58:25 10° WNW visible
30 Oct 2.7 03:37:33 10° SSE 03:42:07 90° E 03:46:36 10° NNW visible
30 Oct 5.5 05:15:21 10° SSW 05:17:56 15° SW 05:20:32 10° W visible
31 Oct 3.3 04:00:54 10° S 04:05:20 57° WSW 04:09:44 10° NNW visible
31 Oct 5.9 05:40:20 10° SW 05:40:52 10° SW 05:41:23 10° WSW visible
01 Nov 4.2 04:24:21 10° S 04:28:30 36° WSW 04:32:35 10° NW visible
02 Nov 2.9 03:10:57 10° SSE 03:15:23 51° E 03:19:45 10° N visible
02 Nov 5.0 04:47:57 10° S 04:51:34 24° WSW 04:55:09 10° WNW visible
03 Nov 2.6 03:34:09 10° SSE 03:38:42 83° ENE 03:43:12 10° NNW visible
03 Nov 5.5 05:11:48 10° SSW 05:14:34 16° SW 05:17:21 10° W visible
04 Nov 3.2 03:57:28 10° S 04:01:56 61° WSW 04:06:21 10° NNW visible
04 Nov 5.8 05:36:20 10° SW 05:37:31 11° SW 05:38:42 10° WSW visible
05 Nov 4.1 04:20:54 10° S 04:25:06 39° WSW 04:29:16 10° NW visible
06 Nov 3.0 03:07:34 10° SSE 03:11:57 47° E 03:16:17 10° N visible
06 Nov 4.9 04:44:29 10° S 04:48:12 25° WSW 04:51:53 10° WNW visible
